User: anonymous
Location: Unspecified
(0.0000°N, 0.0000°E)
Time: 16:44:58
(UTC+02:00)
Language:

GPS 2-05 Rocket1 - Orbit

View from above orbital plane
View from above orbital plane
View from above satellite
View from above satellite

Ground track
Ground track

The orbit data is extracted from the following two-line orbital elements,

1 20362U 89097B   14112.19582500  .00022879  00000-0  84091-3 0  4128
2 20362 035.6251 031.4886 0114961 335.2018 176.5289 15.20953427322352
Epoch (UTC): 22 April 2014 04:41:59
Eccentricity: 0.0114961
inclination: 35.6251°
perigee height: 424 km
apogee height: 582 km
right ascension of ascending node: 31.4886°
argument of perigee: 335.2018°
revolutions per day: 15.20953427
mean anomaly at epoch: 176.5289°
orbit number at epoch: 32235

The dashed part of the orbit path shows where the satellite is in the earth's shadow,  

DLR